Weather History for Warroad, MN

Change the Weather History Date:

Sunday, December 29, 2013

  Actual Average Record
Temperature  
Mean Temperature -22 °F -  
Max Temperature -11 °F 13 °F 39 °F (1999)
Min Temperature -32 °F -4 °F -32 °F (2013)
Degree Days  
Heating Degree Days 86    
Moisture  
Dew Point -27 °F    
Average Humidity 69    
Maximum Humidity 76    
Minimum Humidity 59    
Precipitation  
Precipitation 0.00 in - - ()
Sea Level Pressure  
Sea Level Pressure 30.27 in    
Wind  
Wind Speed 6 mph (WSW)    
Max Wind Speed 13 mph    
Max Gust Speed -    
Visibility 10 miles    
Events      
Averages and records for this station are not official NWS values.
T = Trace of Precipitation, MM = Missing Value Source: NWS Daily Summary

Daily Weather History Graph

Daily Weather History Graph

Search for Another Location

Airport:

Trip Planner

Search our weather history database for the weather conditions in past years. The results will help you decide how hot, cold, wet, or windy it might be!

Date:

Astronomy

Dec. 29, 2013 Rise Set
Actual Time 8:15 AM CST 4:32 PM CST
Civil Twilight 7:37 AM CST 5:09 PM CST
Nautical Twilight 6:57 AM CST 5:49 PM CST
Astronomical Twilight 6:18 AM CST 6:28 PM CST
Moon 4:52 AM CST (12/29) 2:17 PM CST (12/29)
Length of Visible Light 9h 31m
Length of Day
8h 17m
Waning Crescent, 11% of the Moon is Illuminated
Dec 29
Waning Crescent
Jan 1
New
Jan 7
First Quarter
Jan 15
Full
Jan 23
Last Quarter

Hourly Weather History & Observations

Time (CST) Temp. Windchill Dew Point Humidity Pressure Visibility Wind Dir Wind Speed Gust Speed Precip Events Conditions
12:14 AM -16.6 °F -34.4 °F -23.8 °F 70% 30.36 in 10.0 mi NW 8.1 mph - N/A   Clear
12:34 AM -18.4 °F -33.4 °F -23.8 °F 76% 30.36 in 10.0 mi NW 5.8 mph - N/A   Clear
12:53 AM -18.4 °F -35.1 °F -25.6 °F 70% 30.36 in 10.0 mi NNW 6.9 mph - N/A   Clear
1:14 AM -18.4 °F -36.6 °F -25.6 °F 70% 30.36 in 10.0 mi NW 8.1 mph - N/A   Clear
1:34 AM -20.2 °F -37.3 °F -25.6 °F 76% 30.36 in 10.0 mi WNW 6.9 mph - N/A   Clear
1:53 AM -20.2 °F -40.1 °F -27.4 °F 69% 30.36 in 10.0 mi WNW 9.2 mph - N/A   Clear
2:14 AM -20.2 °F -37.3 °F -27.4 °F 69% 30.37 in 10.0 mi WNW 6.9 mph - N/A   Clear
2:34 AM -20.2 °F -38.8 °F -27.4 °F 69% 30.39 in 10.0 mi WNW 8.1 mph - N/A   Clear
2:54 AM -22.0 °F -42.3 °F -29.2 °F 69% 30.39 in 10.0 mi NW 9.2 mph - N/A   Clear
3:14 AM -20.2 °F -41.3 °F -29.2 °F 63% 30.39 in 10.0 mi WNW 10.4 mph - N/A   Clear
3:34 AM -22.0 °F -42.3 °F -29.2 °F 69% 30.39 in 10.0 mi WNW 9.2 mph - N/A   Clear
3:54 AM -22.0 °F -41.0 °F -29.2 °F 69% 30.39 in 10.0 mi WNW 8.1 mph - N/A   Clear
4:14 AM -22.0 °F -39.4 °F -29.2 °F 69% 30.38 in 10.0 mi WNW 6.9 mph - N/A   Clear
4:34 AM -23.8 °F -37.7 °F -29.2 °F 76% 30.39 in 10.0 mi West 4.6 mph - N/A   Clear
4:54 AM -23.8 °F - -31.0 °F 69% 30.38 in 10.0 mi Calm Calm - N/A   Clear
5:14 AM -25.6 °F -41.9 °F -32.8 °F 69% 30.38 in 10.0 mi WSW 5.8 mph - N/A   Clear
5:34 AM -25.6 °F -41.9 °F -32.8 °F 69% 30.37 in 10.0 mi West 5.8 mph - N/A   Clear
5:54 AM -25.6 °F -41.9 °F -32.8 °F 69% 30.37 in 10.0 mi West 5.8 mph - N/A   Clear
6:14 AM -25.6 °F -41.9 °F -32.8 °F 69% 30.37 in 10.0 mi West 5.8 mph - N/A   Clear
6:34 AM -25.6 °F -39.8 °F -32.8 °F 69% 30.37 in 10.0 mi West 4.6 mph - N/A   Clear
6:54 AM -27.4 °F -39.2 °F -34.6 °F 69% 30.36 in 10.0 mi WSW 3.5 mph - N/A   Clear
7:14 AM -25.6 °F -37.1 °F -32.8 °F 69% 30.35 in 10.0 mi WSW 3.5 mph - N/A   Clear
7:34 AM -25.6 °F -37.1 °F -32.8 °F 69% 30.35 in 10.0 mi WSW 3.5 mph - N/A   Clear
7:54 AM -29.2 °F -41.2 °F -36.4 °F 68% 30.34 in 10.0 mi SW 3.5 mph - N/A   Clear
8:14 AM -27.4 °F -39.2 °F -34.6 °F 69% 30.34 in 10.0 mi SW 3.5 mph - N/A   Clear
8:34 AM -32.8 °F -48.2 °F -40.0 °F 68% 30.34 in 10.0 mi SW 4.6 mph - N/A   Clear
8:54 AM -25.6 °F -41.9 °F -32.8 °F 69% 30.34 in 10.0 mi WSW 5.8 mph - N/A   Clear
9:13 AM -25.6 °F -41.9 °F -32.8 °F 69% 30.34 in 10.0 mi WSW 5.8 mph - N/A   Clear
9:34 AM -23.8 °F -39.8 °F -31.0 °F 69% 30.34 in - West 5.8 mph - N/A   Clear
9:54 AM -22.0 °F -35.6 °F -29.2 °F 69% 30.34 in 10.0 mi WSW 4.6 mph - N/A   Clear
10:13 AM -20.2 °F -30.9 °F -27.4 °F 69% 30.34 in 10.0 mi SW 3.5 mph - N/A   Clear
10:34 AM -20.2 °F -30.9 °F -27.4 °F 69% 30.33 in 10.0 mi SW 3.5 mph - N/A   Clear
10:54 AM -18.4 °F -31.4 °F -25.6 °F 70% 30.33 in 10.0 mi SW 4.6 mph - N/A   Clear
11:13 AM -18.4 °F -31.4 °F -25.6 °F 70% 30.33 in 10.0 mi SW 4.6 mph - N/A   Clear
11:34 AM -16.6 °F -29.3 °F -23.8 °F 70% 30.31 in 10.0 mi SW 4.6 mph - N/A   Clear
11:53 AM -16.6 °F -31.3 °F -23.8 °F 70% 30.30 in 10.0 mi SW 5.8 mph - N/A   Clear
12:14 PM -14.8 °F -30.8 °F -23.8 °F 64% 30.28 in 10.0 mi SW 6.9 mph - N/A   Clear
12:34 PM -14.8 °F -30.8 °F -23.8 °F 64% 30.27 in 10.0 mi SW 6.9 mph - N/A   Clear
12:54 PM -14.8 °F -33.5 °F -22.0 °F 70% 30.27 in 10.0 mi SW 9.2 mph - N/A   Clear
1:14 PM -13.0 °F -28.6 °F -22.0 °F 64% 30.25 in 10.0 mi WSW 6.9 mph - N/A   Clear
1:34 PM -13.0 °F -33.4 °F -22.0 °F 64% 30.25 in 10.0 mi SW 11.5 mph - N/A   Clear
1:54 PM -13.0 °F -34.3 °F -22.0 °F 64% 30.24 in 10.0 mi WSW 12.7 mph - N/A   Clear
2:14 PM -11.2 °F -31.1 °F -22.0 °F 59% 30.23 in 10.0 mi West 11.5 mph - N/A   Clear
2:34 PM -13.0 °F -30.0 °F -22.0 °F 64% 30.22 in 10.0 mi WSW 8.1 mph - N/A   Clear
2:54 PM -13.0 °F -30.0 °F -22.0 °F 64% 30.22 in 10.0 mi WSW 8.1 mph - N/A   Clear
3:14 PM -13.0 °F -27.0 °F -22.0 °F 64% 30.21 in 10.0 mi SW 5.8 mph - N/A   Clear
3:34 PM -13.0 °F -25.1 °F -22.0 °F 64% 30.21 in 10.0 mi SW 4.6 mph - N/A   Clear
3:54 PM -14.8 °F -32.2 °F -22.0 °F 70% 30.21 in 10.0 mi SW 8.1 mph - N/A   Clear
4:14 PM -14.8 °F -30.8 °F -22.0 °F 70% 30.21 in 10.0 mi SW 6.9 mph - N/A   Clear
4:34 PM -14.8 °F -29.1 °F -22.0 °F 70% 30.20 in 10.0 mi SW 5.8 mph - N/A   Clear
4:54 PM -16.6 °F -26.8 °F -23.8 °F 70% 30.19 in 10.0 mi SW 3.5 mph - N/A   Clear
5:14 PM -16.6 °F -26.8 °F -23.8 °F 70% 30.19 in 10.0 mi SW 3.5 mph - N/A   Clear
5:34 PM -16.6 °F -26.8 °F -23.8 °F 70% 30.19 in 10.0 mi SW 3.5 mph - N/A   Clear
5:54 PM -16.6 °F -29.3 °F -23.8 °F 70% 30.18 in 10.0 mi SW 4.6 mph - N/A   Clear
6:14 PM -18.4 °F -33.4 °F -23.8 °F 76% 30.17 in 10.0 mi SW 5.8 mph - N/A   Clear
6:34 PM -18.4 °F -33.4 °F -25.6 °F 70% 30.16 in 10.0 mi WSW 5.8 mph - N/A   Clear
6:54 PM -18.4 °F -31.4 °F -25.6 °F 70% 30.15 in 10.0 mi SW 4.6 mph - N/A   Clear
7:14 PM -18.4 °F -35.1 °F -25.6 °F 70% 30.15 in 10.0 mi SW 6.9 mph - N/A   Clear
7:33 PM -18.4 °F -31.4 °F -25.6 °F 70% 30.14 in 10.0 mi SW 4.6 mph - N/A   Clear
7:54 PM -18.4 °F -28.9 °F -25.6 °F 70% 30.14 in 10.0 mi SW 3.5 mph - N/A   Clear
8:14 PM -20.2 °F -30.9 °F -25.6 °F 76% 30.14 in 10.0 mi SW 3.5 mph - N/A   Clear
8:33 PM -18.4 °F -28.9 °F -25.6 °F 70% 30.14 in 10.0 mi SW 3.5 mph - N/A   Clear
8:54 PM -18.4 °F -35.1 °F -25.6 °F 70% 30.13 in 10.0 mi SSW 6.9 mph - N/A   Clear
9:14 PM -18.4 °F -35.1 °F -25.6 °F 70% 30.13 in 10.0 mi SSW 6.9 mph - N/A   Clear
9:33 PM -18.4 °F -35.1 °F -25.6 °F 70% 30.12 in 10.0 mi SSW 6.9 mph - N/A   Clear
9:54 PM -18.4 °F -33.4 °F -25.6 °F 70% 30.12 in 10.0 mi SSW 5.8 mph - N/A   Clear
10:14 PM -18.4 °F -35.1 °F -25.6 °F 70% 30.13 in 10.0 mi SSW 6.9 mph - N/A   Clear
10:33 PM -18.4 °F -33.4 °F -25.6 °F 70% 30.12 in 10.0 mi SSW 5.8 mph - N/A   Clear
10:54 PM -20.2 °F -35.5 °F -25.6 °F 76% 30.12 in 10.0 mi SSW 5.8 mph - N/A   Clear
11:14 PM -20.2 °F -30.9 °F -27.4 °F 69% 30.12 in 10.0 mi SW 3.5 mph - N/A   Clear
11:34 PM -20.2 °F -30.9 °F -27.4 °F 69% 30.12 in 10.0 mi SW 3.5 mph - N/A   Clear
11:54 PM -20.2 °F -33.5 °F -27.4 °F 69% 30.12 in 10.0 mi SSW 4.6 mph - N/A   Clear